{"data":{"norad_id":67114,"intl_designator":"2025-299N","name":"STARLINK-36180","alt_names":[],"object_type":"PAYLOAD","status":"ACTIVE","operator":null,"country":"US","launch_date":"2025-12-15","launch_site_code":"AFETR","launch_vehicle":null,"mission":null,"orbit_class":"UNKNOWN","rcs_meters":null,"size_class":null,"mass_kg":null,"dimensions":null,"purposes":["comms"],"wikipedia_slug":null,"has_3d_model":false,"image_url":null,"decayed_at":null,"tle_current":{"epoch":"2026-05-24T22:12:28.417824Z","epoch_age_seconds":88442,"freshness":"FRESH","line1":"1 67114U 25299N   26144.92532891  .00017965  00000+0  66032-3 0  9999","line2":"2 67114  42.9987  98.6094 0000583 264.6744  95.4041 15.27602016 24778","mean_motion":15.27602016,"eccentricity":5.83e-5,"inclination_deg":42.9987,"raan_deg":98.6094,"arg_perigee_deg":264.6744,"mean_anomaly_deg":95.4041,"bstar":0.00066032,"rev_number":2477,"period_min":94.265390128943,"perigee_km":482.58316970111,"apogee_km":483.38317631328,"semimajor_km":6861.1201730072,"source":"CELESTRAK","updated_at":"2026-05-25T13:38:21.475291Z"}}}